Home > Weather > Canelones > Past weeks

Flag for Uruguay Weather for the Past 2 Weeks in Canelones, Uruguay

Now
52 °F

Passing clouds.


Feels Like: 49 °F
Forecast: 45 / 56 °F
Wind: 8 mph from Southwest

Location: Carrasco

Current Time: Apr 30, 2016 at 4:47:03 AM

Latest Report: Apr 30, 2016 at 4:00 AM


Visibility: N/A

Pressure: 30.21 "Hg

Humidity: 72%

Dew Point: 43 °F

Location of CanelonesLocation

Historic Weather in Canelones — Graph

°F

Canelones Temperature Yesterday

Maximum temperature yesterday: 57 °F (at 11:00 AM)
Minimum temperature yesterday: 41 °F (at 6:00 AM)
Average temperature yesterday: 50 °F

High & Low Weather Summary for the Past Weeks

 TemperatureHumidityPressure
High73 °F (Apr 15, 11:00 AM)100% (Apr 15, 5:00 PM)30.21 "Hg (Apr 15, 5:00 PM)
Low39 °F (Apr 17, 6:00 PM)49% (Apr 21, 3:00 PM)29.56 "Hg (Apr 15, 7:00 PM)
Average60 °F81%29.92 "Hg
* Reported Apr 15 3:00 AM — Apr 30 3:00 AM, Canelones, Weather by CustomWeather, © 2016

Note: Actual official high and low records may vary slightly from our data, if they occured in-between our weather recording intervals... More about our weather records

Advertising

Canelones Weather History for the Previous 24 Hours

Scroll right to see more
 ConditionsComfort  
Time TempWeatherWind HumidityBarometerVisibility
3:00 AM
Sat, Apr 30
52 °FPassing clouds.7 mph72%30.21 "HgN/A
2:00 AM52 °FPassing clouds.15 mph67%30.21 "HgN/A
1:00 AM52 °FPassing clouds.12 mph67%30.21 "HgN/A
12:00 AM52 °FPassing clouds.10 mph67%30.21 "HgN/A
11:00 PM
Fri, Apr 29
52 °FPassing clouds.17 mph67%30.21 "HgN/A
10:00 PM52 °FPassing clouds.21 mph67%30.21 "HgN/A
8:00 PM52 °FPassing clouds.13 mph77%30.21 "HgN/A
7:00 PM54 °FPassing clouds.12 mph67%30.18 "HgN/A
6:00 PM54 °FPassing clouds.13 mph63%30.18 "HgN/A
5:00 PM55 °FScattered clouds.15 mph67%30.18 "HgN/A
4:00 PM55 °FScattered clouds.15 mph59%30.18 "HgN/A
3:00 PM55 °FScattered clouds.17 mph63%30.18 "HgN/A
2:00 PM54 °FLight rain. Broken clouds.14 mph72%30.18 "HgN/A
1:00 PM57 °FPartly sunny.13 mph59%30.18 "HgN/A
12:00 PM57 °FBroken clouds.13 mph63%30.18 "HgN/A
11:00 AM57 °FScattered clouds.14 mph72%30.18 "HgN/A
10:00 AM55 °FPartly sunny.7 mph88%30.15 "HgN/A
9:00 AM48 °FPartly sunny.5 mph94%30.15 "HgN/A
8:00 AM43 °FPartly sunny.5 mph100%30.15 "HgN/A
7:00 AM41 °FSunny.6 mph100%30.15 "Hg10 mi
6:00 AM41 °FClear.5 mph93%30.15 "Hg10 mi
5:00 AM43 °FClear.5 mph87%30.15 "Hg10 mi
4:00 AM43 °FClear.5 mph87%30.15 "Hg10 mi
Weather by CustomWeather, © 2016

See weather overviewHow to use our weather pages